Flag for India Weather past 2 weeks in Tiruvarur, Tamil Nadu, India

Now
95 °F

Passing clouds.


Feels Like: 100 °F
Forecast: 79 / 95 °F
Wind: 8 mph from East

Location: Tiruchchirapalli

Current Time: Apr 19, 2015 at 6:14:02 PM

Latest Report: Apr 19, 2015 at 5:40 PM


Visibility: 5 mi

Pressure: 29.71 "Hg

Humidity: 41%

Dew point: 68 °F

Location of TiruvarurLocation

Historic Weather in Tiruvarur — Graph

°F

Tiruvarur temperature yesterday

Maximum temperature yesterday: 95 °F (at 3:10 PM)
Minimum temperature yesterday: 70 °F (at 2:40 AM)
Average temperature yesterday: 84 °F

Past Weeks' High & Low Weather Summary

 TemperatureHumidityPressure
High104 °F (Apr 4, 4:40 PM)100% (Apr 13, 2:40 AM)29.98 "Hg (Apr 13, 2:40 AM)
Low70 °F (Apr 18, 2:40 AM)29% (Apr 6, 3:40 PM)29.59 "Hg (Apr 4, 4:40 PM)
Average87 °F65%29.82 "Hg
* Reported Apr 4 4:40 PM — Apr 19 4:40 PM, Tiruvarur, Weather by CustomWeather, © 2015

Note: Actual official high and low records may vary slightly from our data, if they occured in-between our weather recording intervals... More about our weather records

Advertising

Tiruvarur weather history for previous 24 hours

 ConditionsComfort  
Time TempWeatherWind HumidityBarometerVisibility
4:40 PM
Sun, Apr 19
93 °FPassing clouds.5 mph47%29.71 "Hg5 mi
4:10 PM95 °FPassing clouds.6 mph41%29.71 "Hg5 mi
3:40 PM95 °FPassing clouds.6 mph41%29.71 "Hg5 mi
3:10 PM95 °FScattered clouds.5 mph41%29.71 "Hg5 mi
2:40 PM95 °FScattered clouds.3 mph41%29.71 "Hg5 mi
2:10 PM93 °FScattered clouds.6 mph53%29.74 "Hg5 mi
1:40 PM93 °FScattered clouds.2 mph53%29.74 "Hg5 mi
10:40 AM90 °FScattered clouds.2 mph67%29.83 "Hg5 mi
10:10 AM88 °FScattered clouds.2 mph70%29.83 "Hg4 mi
9:10 AM86 °FFog.3 mph75%29.83 "Hg2 mi
8:10 AM82 °FFog.5 mph79%29.80 "Hg1 mi
7:40 AM81 °FFog.5 mph84%29.80 "Hg1 mi
7:10 AM81 °FFog.5 mph84%29.77 "Hg1 mi
6:40 AM79 °FFog.3 mph94%29.77 "Hg1 mi
6:10 AM79 °FFog.No wind94%29.77 "Hg1 mi
5:10 AM79 °FFog.3 mph89%29.74 "Hg2 mi
4:40 AM79 °FFog.5 mph89%29.74 "Hg2 mi
4:10 AM81 °FFog.3 mph84%29.74 "Hg3 mi
3:10 AM81 °FPassing clouds.2 mph84%29.74 "Hg4 mi
2:40 AM81 °FPassing clouds.2 mph84%29.74 "Hg4 mi
2:10 AM81 °FPassing clouds.No wind84%29.74 "Hg4 mi
1:40 AM82 °FPassing clouds.No wind79%29.77 "Hg4 mi
1:10 AM82 °FPassing clouds.2 mph79%29.77 "Hg4 mi
12:40 AM82 °FPassing clouds.2 mph79%29.80 "Hg4 mi
12:10 AM82 °FPassing clouds.3 mph79%29.80 "Hg4 mi
11:40 PM
Sat, Apr 18
84 °FPassing clouds.3 mph74%29.80 "Hg4 mi
11:10 PM84 °FPassing clouds.3 mph74%29.83 "Hg4 mi
10:40 PM84 °FPassing clouds.3 mph74%29.83 "Hg4 mi
10:10 PM86 °FPassing clouds.6 mph70%29.80 "Hg4 mi
9:40 PM86 °FPassing clouds.5 mph70%29.80 "Hg4 mi
9:10 PM86 °FPassing clouds.7 mph70%29.77 "Hg4 mi
8:40 PM88 °FPassing clouds.7 mph66%29.77 "Hg4 mi
8:10 PM88 °FPassing clouds.10 mph66%29.74 "Hg4 mi
7:40 PM88 °FPassing clouds.6 mph66%29.74 "Hg4 mi
7:10 PM88 °FPassing clouds.7 mph62%29.71 "Hg4 mi
6:40 PM90 °FPassing clouds.6 mph59%29.71 "Hg4 mi
6:10 PM91 °FPassing clouds.7 mph56%29.68 "Hg5 mi
Weather by CustomWeather, © 2015

See weather overviewHow to use our weather pages